BVG0134 EGNV-EGBK

Flight info

Callsign BVG0134
Flight time 0h 53m
Altitude 7000
Route ANK5E DKB GED1E
Aircraft PA24/L-SDGRY/S

Departure

Time 2026-04-28 13:21
Airport Teesside International Airport (EGNV)

Arrival

Time 2026-04-28 14:14
Airport Sywell Aerodrome (EGBK)
Time Latitude Longitude Altitude Speed Heading
2026-04-28 13:00 54.51627 -1.42328 124 ft 0 kts 100°
2026-04-28 13:12 54.51627 -1.42322 124 ft 1 kts 77°
2026-04-28 13:13 54.51638 -1.42302 124 ft 6 kts 51°
2026-04-28 13:13 54.51684 -1.42197 124 ft 16 kts 43°
2026-04-28 13:13 54.51725 -1.42088 124 ft 4 kts 52°
2026-04-28 13:13 54.51740 -1.42057 124 ft 8 kts 38°
2026-04-28 13:14 54.51766 -1.42021 124 ft 0 kts 50°
2026-04-28 13:14 54.51798 -1.41954 124 ft 17 kts 54°
2026-04-28 13:14 54.51828 -1.41859 124 ft 2 kts 49°
2026-04-28 13:14 54.51835 -1.41838 124 ft 7 kts 62°
2026-04-28 13:15 54.51855 -1.41747 124 ft 17 kts 70°
2026-04-28 13:15 54.51881 -1.41508 124 ft 6 kts 116°
2026-04-28 13:15 54.51877 -1.41493 124 ft 0 kts 90°
2026-04-28 13:16 54.51874 -1.41485 124 ft 1 kts 151°
2026-04-28 13:16 54.51868 -1.41489 124 ft 2 kts 234°
2026-04-28 13:16 54.51818 -1.41578 124 ft 15 kts 204°
2026-04-28 13:16 54.51739 -1.41588 124 ft 19 kts 175°
2026-04-28 13:17 54.51609 -1.41577 124 ft 13 kts 214°
2026-04-28 13:17 54.51586 -1.41658 124 ft 2 kts 225°
2026-04-28 13:17 54.51585 -1.41660 124 ft 0 kts 230°
2026-04-28 13:20 54.51499 -1.41830 124 ft 39 kts 227°
2026-04-28 13:20 54.51208 -1.42364 125 ft 81 kts 227°
2026-04-28 13:20 54.50826 -1.43066 348 ft 80 kts 226°
2026-04-28 13:20 54.50324 -1.43469 560 ft 82 kts 190°
2026-04-28 13:21 54.49760 -1.43688 780 ft 85 kts 195°
2026-04-28 13:21 54.49185 -1.43981 1000 ft 88 kts 197°
2026-04-28 13:21 54.48588 -1.44314 1222 ft 93 kts 198°
2026-04-28 13:21 54.47960 -1.44675 1452 ft 97 kts 198°
2026-04-28 13:22 54.47297 -1.45060 1661 ft 101 kts 199°
2026-04-28 13:22 54.46637 -1.45445 1841 ft 103 kts 199°
2026-04-28 13:22 54.45951 -1.45844 2023 ft 105 kts 199°
2026-04-28 13:22 54.45252 -1.46252 2205 ft 106 kts 199°
2026-04-28 13:23 54.44544 -1.46664 2386 ft 108 kts 199°
2026-04-28 13:23 54.43826 -1.47083 2566 ft 109 kts 199°
2026-04-28 13:23 54.43108 -1.47501 2744 ft 111 kts 199°
2026-04-28 13:23 54.42381 -1.47925 2922 ft 112 kts 199°
2026-04-28 13:24 54.41640 -1.48357 3100 ft 113 kts 199°
2026-04-28 13:24 54.40884 -1.48796 3280 ft 114 kts 199°
2026-04-28 13:24 54.40134 -1.49233 3456 ft 115 kts 199°
2026-04-28 13:24 54.39368 -1.49678 3632 ft 117 kts 199°
2026-04-28 13:25 54.38594 -1.50127 3809 ft 118 kts 199°
2026-04-28 13:25 54.37812 -1.50582 3985 ft 119 kts 200°
2026-04-28 13:25 54.37029 -1.51037 4160 ft 120 kts 200°
2026-04-28 13:25 54.36232 -1.51499 4337 ft 121 kts 201°
2026-04-28 13:26 54.35428 -1.51965 4514 ft 122 kts 201°
2026-04-28 13:26 54.34617 -1.52436 4691 ft 123 kts 202°
2026-04-28 13:26 54.33800 -1.52910 4869 ft 124 kts 202°
2026-04-28 13:26 54.32976 -1.53387 5047 ft 125 kts 203°
2026-04-28 13:27 54.32157 -1.53862 5224 ft 126 kts 204°
2026-04-28 13:27 54.31324 -1.54344 5403 ft 126 kts 204°
2026-04-28 13:27 54.30495 -1.54824 5580 ft 126 kts 205°
2026-04-28 13:27 54.29658 -1.55309 5759 ft 127 kts 205°
2026-04-28 13:28 54.28823 -1.55792 5938 ft 127 kts 206°
2026-04-28 13:28 54.27995 -1.56270 6114 ft 127 kts 206°
2026-04-28 13:28 54.27159 -1.56753 6293 ft 126 kts 206°
2026-04-28 13:28 54.26324 -1.57236 6472 ft 126 kts 206°
2026-04-28 13:29 54.25501 -1.57711 6649 ft 125 kts 207°
2026-04-28 13:29 54.24685 -1.58182 6822 ft 124 kts 207°
2026-04-28 13:29 54.23863 -1.58657 6997 ft 124 kts 207°
2026-04-28 13:29 54.23049 -1.59127 7171 ft 123 kts 207°
2026-04-28 13:30 54.22250 -1.59587 7341 ft 123 kts 207°
2026-04-28 13:30 54.21442 -1.60053 7515 ft 123 kts 207°
2026-04-28 13:30 54.20630 -1.60521 7690 ft 123 kts 207°
2026-04-28 13:30 54.19824 -1.60985 7863 ft 123 kts 207°
2026-04-28 13:31 54.18205 -1.61917 8213 ft 122 kts 207°
2026-04-28 13:31 54.17399 -1.62381 8387 ft 122 kts 207°
2026-04-28 13:31 54.16602 -1.62839 8559 ft 122 kts 207°
2026-04-28 13:32 54.15789 -1.63306 8735 ft 122 kts 207°
2026-04-28 13:32 54.14984 -1.63769 8892 ft 124 kts 207°
2026-04-28 13:32 54.14148 -1.64252 8989 ft 130 kts 207°
2026-04-28 13:32 54.13268 -1.64764 9012 ft 140 kts 206°
2026-04-28 13:33 54.12310 -1.65318 9012 ft 149 kts 206°
2026-04-28 13:33 54.11318 -1.65888 9009 ft 156 kts 205°
2026-04-28 13:33 54.10254 -1.66497 9006 ft 160 kts 205°
2026-04-28 13:33 54.09190 -1.67103 9003 ft 162 kts 205°
2026-04-28 13:34 54.08131 -1.67706 9002 ft 163 kts 205°
2026-04-28 13:34 54.07048 -1.68323 9001 ft 164 kts 205°
2026-04-28 13:34 54.05961 -1.68943 9001 ft 165 kts 205°
2026-04-28 13:34 54.04865 -1.69568 9001 ft 165 kts 205°
2026-04-28 13:35 54.03780 -1.70187 9000 ft 166 kts 205°
2026-04-28 13:35 54.02670 -1.70820 9000 ft 166 kts 205°
2026-04-28 13:35 54.01581 -1.71441 9000 ft 166 kts 205°
2026-04-28 13:35 54.00491 -1.72062 9000 ft 166 kts 205°
2026-04-28 13:36 53.99391 -1.72688 9000 ft 166 kts 205°
2026-04-28 13:36 53.98276 -1.73323 9000 ft 167 kts 205°
2026-04-28 13:36 53.97196 -1.73938 9000 ft 167 kts 205°
2026-04-28 13:36 53.96085 -1.74570 9000 ft 167 kts 205°
2026-04-28 13:37 53.94992 -1.75191 9000 ft 167 kts 205°
2026-04-28 13:37 53.93892 -1.75817 9000 ft 167 kts 205°
2026-04-28 13:37 53.92802 -1.76436 9000 ft 167 kts 205°
2026-04-28 13:37 53.91701 -1.77061 9000 ft 167 kts 205°
2026-04-28 13:38 53.90589 -1.77691 9000 ft 167 kts 205°
2026-04-28 13:38 53.89494 -1.78312 9000 ft 167 kts 205°
2026-04-28 13:38 53.88400 -1.78932 9000 ft 167 kts 205°
2026-04-28 13:38 53.87305 -1.79552 9000 ft 167 kts 205°
2026-04-28 13:39 53.86194 -1.80182 9000 ft 167 kts 205°
2026-04-28 13:39 53.85092 -1.80805 9000 ft 167 kts 205°
2026-04-28 13:39 53.84004 -1.81420 9000 ft 167 kts 205°
2026-04-28 13:39 53.82906 -1.82041 9000 ft 167 kts 205°
2026-04-28 13:40 53.81795 -1.82668 9000 ft 167 kts 205°
2026-04-28 13:40 53.80695 -1.83289 9000 ft 167 kts 205°
2026-04-28 13:40 53.79597 -1.83909 9000 ft 167 kts 205°
2026-04-28 13:40 53.78506 -1.84524 9000 ft 167 kts 205°
2026-04-28 13:41 53.77398 -1.85149 9000 ft 167 kts 205°
2026-04-28 13:41 53.76289 -1.85773 9000 ft 167 kts 205°
2026-04-28 13:41 53.75202 -1.86385 9000 ft 167 kts 205°
2026-04-28 13:41 53.74102 -1.87004 9000 ft 167 kts 205°
2026-04-28 13:42 53.72983 -1.87633 9000 ft 167 kts 205°
2026-04-28 13:42 53.71895 -1.88245 9000 ft 167 kts 205°
2026-04-28 13:42 53.70795 -1.88863 9000 ft 167 kts 205°
2026-04-28 13:42 53.69688 -1.89484 9000 ft 167 kts 205°
2026-04-28 13:43 53.68592 -1.90099 9000 ft 167 kts 205°
2026-04-28 13:43 53.67498 -1.90713 9000 ft 167 kts 205°
2026-04-28 13:43 53.66395 -1.91331 9000 ft 167 kts 205°
2026-04-28 13:43 53.65293 -1.91948 9000 ft 167 kts 205°
2026-04-28 13:44 53.64192 -1.92564 9000 ft 167 kts 205°
2026-04-28 13:44 53.63093 -1.93179 9000 ft 167 kts 205°
2026-04-28 13:44 53.61986 -1.93798 9000 ft 167 kts 205°
2026-04-28 13:44 53.60881 -1.94412 9000 ft 167 kts 204°
2026-04-28 13:45 53.59702 -1.94435 9002 ft 178 kts 171°
2026-04-28 13:45 53.58548 -1.93601 9006 ft 182 kts 158°
2026-04-28 13:45 53.57446 -1.92532 9002 ft 184 kts 155°
2026-04-28 13:45 53.56352 -1.91397 9000 ft 184 kts 154°
2026-04-28 13:46 53.55260 -1.90248 9000 ft 185 kts 154°
2026-04-28 13:46 53.54177 -1.89106 9000 ft 185 kts 154°
2026-04-28 13:46 53.53082 -1.87955 9000 ft 185 kts 154°
2026-04-28 13:46 53.52005 -1.86825 9000 ft 185 kts 154°
2026-04-28 13:47 53.50918 -1.85688 9000 ft 185 kts 154°
2026-04-28 13:47 53.49828 -1.84548 9000 ft 185 kts 154°
2026-04-28 13:47 53.48734 -1.83406 9000 ft 185 kts 154°
2026-04-28 13:47 53.47632 -1.82256 9000 ft 185 kts 154°
2026-04-28 13:48 53.46550 -1.81128 9000 ft 185 kts 154°
2026-04-28 13:48 53.45448 -1.79980 9000 ft 185 kts 154°
2026-04-28 13:48 53.44373 -1.78862 9000 ft 185 kts 154°
2026-04-28 13:48 53.43277 -1.77721 9000 ft 185 kts 154°
2026-04-28 13:49 53.42184 -1.76586 9000 ft 185 kts 154°
2026-04-28 13:49 53.41093 -1.75453 9000 ft 185 kts 154°
2026-04-28 13:49 53.39972 -1.74289 9000 ft 185 kts 154°
2026-04-28 13:49 53.38915 -1.73192 9000 ft 185 kts 154°
2026-04-28 13:50 53.37823 -1.72060 9000 ft 185 kts 154°
2026-04-28 13:50 53.36713 -1.70911 9000 ft 185 kts 154°
2026-04-28 13:50 53.35636 -1.69794 9000 ft 185 kts 154°
2026-04-28 13:50 53.34544 -1.68665 9000 ft 185 kts 154°
2026-04-28 13:51 53.33456 -1.67540 9000 ft 185 kts 154°
2026-04-28 13:51 53.32366 -1.66413 9000 ft 185 kts 154°
2026-04-28 13:51 53.31274 -1.65285 9000 ft 185 kts 154°
2026-04-28 13:51 53.30173 -1.64149 9000 ft 185 kts 154°
2026-04-28 13:52 53.29077 -1.63017 9000 ft 185 kts 154°
2026-04-28 13:52 53.27988 -1.61895 9000 ft 185 kts 154°
2026-04-28 13:52 53.26897 -1.60770 9000 ft 185 kts 154°
2026-04-28 13:52 53.25800 -1.59641 9000 ft 185 kts 154°
2026-04-28 13:53 53.24699 -1.58508 9000 ft 185 kts 154°
2026-04-28 13:53 53.23621 -1.57399 9000 ft 185 kts 154°
2026-04-28 13:53 53.22525 -1.56272 9000 ft 185 kts 154°
2026-04-28 13:53 53.21435 -1.55153 9000 ft 185 kts 154°
2026-04-28 13:54 53.20345 -1.54034 9000 ft 185 kts 154°
2026-04-28 13:54 53.19252 -1.52912 9000 ft 185 kts 154°
2026-04-28 13:54 53.18138 -1.51770 9000 ft 185 kts 154°
2026-04-28 13:54 53.17063 -1.50669 9000 ft 185 kts 154°
2026-04-28 13:55 53.15967 -1.49546 9000 ft 185 kts 154°
2026-04-28 13:55 53.14875 -1.48429 9000 ft 185 kts 154°
2026-04-28 13:55 53.13767 -1.47295 9000 ft 185 kts 154°
2026-04-28 13:55 53.12686 -1.46190 9000 ft 185 kts 154°
2026-04-28 13:56 53.11590 -1.45071 9000 ft 185 kts 154°
2026-04-28 13:56 53.10496 -1.43954 9000 ft 185 kts 154°
2026-04-28 13:56 53.09385 -1.42820 9000 ft 185 kts 154°
2026-04-28 13:56 53.08303 -1.41717 9000 ft 185 kts 154°
2026-04-28 13:57 53.07209 -1.40603 9000 ft 185 kts 154°
2026-04-28 13:57 53.06118 -1.39492 9000 ft 185 kts 154°
2026-04-28 13:57 53.05025 -1.38380 9000 ft 185 kts 154°
2026-04-28 13:57 53.03921 -1.37257 9000 ft 185 kts 154°
2026-04-28 13:58 53.02823 -1.36141 9000 ft 185 kts 154°
2026-04-28 13:58 53.01734 -1.35036 9000 ft 185 kts 154°
2026-04-28 13:58 53.00640 -1.33926 9000 ft 185 kts 154°
2026-04-28 13:58 52.99537 -1.32809 9000 ft 185 kts 154°
2026-04-28 13:59 52.98447 -1.31705 9000 ft 185 kts 154°
2026-04-28 13:59 52.97320 -1.30571 9033 ft 191 kts 154°
2026-04-28 13:59 52.96179 -1.29418 8955 ft 197 kts 154°
2026-04-28 13:59 52.95036 -1.28251 8990 ft 192 kts 154°
2026-04-28 14:00 52.93896 -1.27089 8996 ft 190 kts 154°
2026-04-28 14:00 52.92773 -1.25949 8998 ft 188 kts 154°
2026-04-28 14:00 52.91647 -1.24808 8999 ft 187 kts 154°
2026-04-28 14:00 52.90553 -1.23703 8999 ft 186 kts 154°
2026-04-28 14:01 52.89443 -1.22583 8999 ft 186 kts 154°
2026-04-28 14:01 52.88345 -1.21476 9000 ft 186 kts 154°
2026-04-28 14:01 52.87597 -1.20723 9000 ft 185 kts 154°
2026-04-28 14:01 52.86140 -1.19255 9000 ft 185 kts 154°
2026-04-28 14:02 52.85038 -1.18146 9000 ft 185 kts 154°
2026-04-28 14:02 52.83939 -1.17041 9000 ft 185 kts 154°
2026-04-28 14:02 52.82842 -1.15939 9000 ft 185 kts 154°
2026-04-28 14:02 52.81744 -1.14837 9000 ft 185 kts 154°
2026-04-28 14:03 52.80996 -1.14085 9000 ft 185 kts 154°
2026-04-28 14:03 52.79895 -1.12982 9000 ft 185 kts 154°
2026-04-28 14:03 52.78814 -1.11899 9000 ft 185 kts 154°
2026-04-28 14:03 52.77718 -1.10801 9000 ft 185 kts 154°
2026-04-28 14:04 52.76611 -1.09696 9000 ft 185 kts 154°
2026-04-28 14:04 52.75511 -1.08599 9000 ft 185 kts 155°
2026-04-28 14:04 52.74407 -1.07495 9000 ft 185 kts 154°
2026-04-28 14:04 52.73319 -1.06409 8953 ft 187 kts 154°
2026-04-28 14:05 52.72182 -1.05279 8835 ft 193 kts 154°
2026-04-28 14:05 52.71019 -1.04125 8717 ft 197 kts 154°
2026-04-28 14:05 52.69838 -1.02953 8598 ft 199 kts 154°
2026-04-28 14:05 52.68627 -1.01753 8476 ft 201 kts 154°
2026-04-28 14:06 52.67423 -1.00559 8324 ft 204 kts 154°
2026-04-28 14:06 52.66184 -0.99337 8075 ft 210 kts 154°
2026-04-28 14:06 52.64939 -0.98108 7831 ft 213 kts 154°
2026-04-28 14:06 52.63670 -0.96853 7566 ft 215 kts 154°
2026-04-28 14:07 52.62376 -0.95576 7266 ft 217 kts 154°
2026-04-28 14:07 52.61054 -0.94273 6962 ft 219 kts 154°
2026-04-28 14:07 52.59766 -0.93002 6667 ft 219 kts 154°
2026-04-28 14:07 52.58456 -0.91713 6366 ft 220 kts 153°
2026-04-28 14:08 52.57144 -0.90425 6066 ft 220 kts 152°
2026-04-28 14:08 52.55816 -0.89123 5764 ft 220 kts 151°
2026-04-28 14:08 52.54520 -0.87852 5468 ft 220 kts 150°
2026-04-28 14:08 52.53205 -0.86564 5160 ft 219 kts 150°
2026-04-28 14:09 52.51908 -0.85293 4863 ft 216 kts 149°
2026-04-28 14:09 52.50614 -0.84026 4562 ft 215 kts 149°
2026-04-28 14:09 52.49346 -0.82786 4282 ft 209 kts 149°
2026-04-28 14:09 52.48119 -0.81589 3980 ft 203 kts 149°
2026-04-28 14:10 52.46913 -0.80412 3678 ft 199 kts 149°
2026-04-28 14:10 52.45725 -0.79256 3375 ft 196 kts 149°
2026-04-28 14:10 52.44567 -0.78130 3075 ft 193 kts 149°
2026-04-28 14:10 52.43429 -0.77026 2778 ft 192 kts 149°
2026-04-28 14:11 52.42283 -0.75915 2478 ft 191 kts 149°
2026-04-28 14:11 52.41140 -0.74810 2176 ft 190 kts 149°
2026-04-28 14:11 52.39923 -0.73991 1869 ft 189 kts 172°
2026-04-28 14:11 52.38681 -0.74099 1656 ft 166 kts 190°
2026-04-28 14:12 52.37598 -0.74585 1346 ft 157 kts 198°
2026-04-28 14:12 52.36598 -0.75189 1025 ft 154 kts 201°
2026-04-28 14:12 52.35608 -0.75845 750 ft 150 kts 202°
2026-04-28 14:12 52.34678 -0.76480 622 ft 141 kts 202°
2026-04-28 14:13 52.33787 -0.77092 519 ft 135 kts 202°
2026-04-28 14:13 52.32950 -0.77669 492 ft 128 kts 203°
2026-04-28 14:13 52.32145 -0.78219 489 ft 121 kts 202°
2026-04-28 14:13 52.31432 -0.78700 445 ft 98 kts 200°
2026-04-28 14:14 52.30927 -0.78950 423 ft 67 kts 195°
2026-04-28 14:14 52.30589 -0.79101 423 ft 35 kts 195°
2026-04-28 14:14 52.30500 -0.79140 423 ft 0 kts 195°